Regional Weather Roundup
Issued by NWS

Home | Current Version | Previous Version | Text Only | Print | Product List | Glossary Off
Versions: 1 2 3 4 5 6 7 8 9 10 11 12 13 14 15 16 17 18 19 20 21 22 23 24 25 26 27 28 29 30 31 32 33 34 35 36 37 38 39 40 41 42 43 44 45 46 47 48 49 50

000
ASUS43 KLOT 260108
RWRIL

ILLINOIS REGIONAL WEATHER ROUNDUP
NATIONAL WEATHER SERVICE CHICAGO/ROMEOVILLE IL
800 PM CDT THU AUG 25 2016

NOTE: "FAIR" INDICATES FEW OR NO CLOUDS BELOW 12,000 FEET WITH NO
SIGNIFICANT WEATHER AND/OR OBSTRUCTIONS TO VISIBILITY.

* THESE STATIONS ARE NOT UNDER NWS QUALITY CONTROL. THEY ALSO MAY NOT
  REPORT WEATHER SUCH AS PRECIPITATION OR FOG.

ILZ001-002-007-009-015-016-024-260200-
NORTHWEST ILLINOIS

CITY           SKY/WX    TMP DP  RH WIND       PRES   REMARKS
MOLINE         NOT AVBL
STERLING*      LGT RAIN  69  66  90 CALM      30.07R FOG
SAVANNA*       MOCLDY    73  65  76 NW5       30.07R
$$

ILZ003-004-008-010-011-017-018-260200-
NORTH CENTRAL ILLINOIS

CITY           SKY/WX    TMP DP  RH WIND       PRES   REMARKS
ROCKFORD       MOCLDY    74  66  76 W5        30.07R
FREEPORT*      CLOUDY    71  64  78 W5        30.10R
ROCHELLE*      CLEAR     69  67  94 W5        30.07S
DE KALB*       CLEAR     69  66  88 W5        30.08R
$$

ILZ005-006-012>014-019>023-260200-
NORTHEAST ILLINOIS

CITY           SKY/WX    TMP DP  RH WIND       PRES   REMARKS
CHICAGO-OHARE  PTCLDY    74  65  73 NW7       30.04R
CHICAGO-MIDWAY MOCLDY    78  64  61 NW7       30.04R HX  80
AURORA         CLEAR     71  67  87 SW5       30.07R
LANSING*       MOCLDY    77  70  81 N3        30.04R
JOLIET*        CLOUDY    77  68  72 CALM      30.06R
WAUKEGAN       CLOUDY    70  65  84 CALM      30.03S
DUPAGE AIRPORT CLEAR     71  63  75 W6        30.06R
KANKAKEE*      PTCLDY    73  72  96 W5        30.06R
WHEELING       CLEAR     75  60  59 W5        30.05R
MORRIS*        CLOUDY    74  69  85 CALM      30.05R
ROMEOVILLE*    MOCLDY    73  68  86 NW5       30.06R
NORTHERLY ISL    N/A     71  67  87 CALM        N/A
$$

LMZ740>746-260200-
SOUTHERN LAKE MICHIGAN

STATION/POSITION SKY/WX   TEMP    WIND        PRES    VSBY  WAVE
                          AIR SEA DIR/SP/G                  HT/PER
                          (F)     (DEG/KT/KT) (MB)    (MI)  (FT/S)
SOUTHERN BUOY              73 75  220/  4/  4 1016.4R         1/ 4
WILMETTE HARBOR            71 70  240/  2/  4   N/A           0
HARRISON CRIB              72     300/  3/  3   N/A
BURNHAM HARBOR             71      CALM  /  2   N/A
CALUMET HARBOR             73                 1016.5R
BURNS HARBOR               75      50/  9/  9 1016.9S
MICHIGAN CITY              74      40/  5/  5   N/A
MICHIGAN CITY 6N           74 74   80/  4/  4   N/A           1
ST. JOSEPH                 73 75  360/  2/  4 1016.9R         1/ 3
$$

ILZ025>027-034>036-040-047-049-050-058-095>099-260200-
WEST-CENTRAL ILLINOIS

CITY           SKY/WX    TMP DP  RH WIND       PRES   REMARKS
QUINCY         CLOUDY    77  74  90 N7        30.05R
GALESBURG*     CLOUDY    72  64  74 NW5       30.07S
MACOMB*        CLOUDY    73  67  81 N6        30.08S
JACKSONVILLE*  PTCLDY    77  73  86 N3        30.04R
PITTSFIELD*    CLOUDY    77  69  76 N6        30.05R
$$

ILZ028>032-037-038-041>044-048-051>054-059>061-260200-
CENTRAL ILLINOIS

CITY           SKY/WX    TMP DP  RH WIND       PRES   REMARKS
PONTIAC        LGT RAIN  75  75  98 N5        30.07R
BLOOMINGTON    MOCLDY    78  70  76 NW5       30.07R HX  80
DECATUR        MOCLDY    83  71  67 CALM      30.05R HX  87
PEORIA         RAIN      74  74 100 SE3       30.06R FOG
LACON*         PTCLDY    74  68  82 CALM      30.05S
LINCOLN*       PTCLDY    79  73  82 CALM      30.04S HX  83
SPRINGFIELD    CLEAR     79  74  84 N5        30.04S HX  82
TAYLORVILLE    PTCLDY    78  75  90 CALM      30.04R HX  82
$$

ILZ033-039-045-046-055>057-062-063-260200-
EAST-CENTRAL ILLINOIS

CITY           SKY/WX    TMP DP  RH WIND       PRES   REMARKS
CHAMPAIGN      CLEAR     79  73  82 NW3       30.06R HX  82
RANTOUL*       CLEAR     80  75  83 CALM      30.06R HX  85
MATTOON        CLEAR     80  76  87 CALM      30.03S HX  86
PARIS*         CLOUDY    76  75  96 CALM      30.05S
$$

ILZ079-100>102-260200-
SOUTHWEST ILLINOIS

CITY           SKY/WX    TMP DP  RH WIND       PRES   REMARKS
BELLEVILLE     MOCLDY    82  75  79 SE3       30.00F HX  89
CAHOKIA*       PTCLDY    84  73  69 S3        30.01S HX  90
SPARTA*        PTCLDY    84  74  71 S6        30.04S HX  92
$$

ILZ064>066-069>071-074>076-080>082-084>086-088>090-092>094-260200-
SOUTH-CENTRAL ILLINOIS

CITY           SKY/WX    TMP DP  RH WIND       PRES   REMARKS
CARBONDALE     CLEAR     78  74  87 CALM      30.04S HX  81
CAIRO*         CLOUDY    81  76  83 CALM      30.05R HX  87
EFFINGHAM*     PTCLDY    79  79  99 CALM      30.05R HX  84
MARION         PTCLDY    81  75  83 CALM      30.06R HX  86
MT. VERNON     PTCLDY    82  72  69 CALM      30.05R HX  87
CENTRALIA*     CLEAR     81  77  88 S5        30.03S HX  88
SALEM*         PTCLDY    82  75  79 S5        30.03S HX  89
$$

ILZ067-068-072-073-078-083-087-091-260200-
SOUTHEAST ILLINOIS

CITY           SKY/WX    TMP DP  RH WIND       PRES   REMARKS
LAWRENCEVILLE  CLEAR     83  73  72 SW7       30.05R HX  89
FLORA*         PTCLDY    80  76  87 S5        30.04R HX  86
FAIRFIELD*     PTCLDY    81  75  82 CALM      30.03S HX  87
HARRISBURG*    PTCLDY    81  76  86 CALM      30.05R HX  87
ROBINSON*      MOCLDY    78  73  84 W5        30.04F HX  80
CARMI*         PTCLDY    80  75  84 CALM      30.04S HX  85
$$

ABBREVIATIONS USED IN REMARKS
   TC - TEMPERATURE IN CELSIUS
  WCI - WIND CHILL INDEX
   HX - HEAT INDEX
  VSB - VISIBILITY
$$





USA.gov is the U.S. government's official web portal to all federal, state and local government web resources and services.